Tracking 19800 objects as of 23-Jul-2019
HD Live streaming from Space Station
objects crossing your sky now

USA 65

Track USA 65 now!
USA 65 is classified as:


NORAD ID: 20929
Int'l Code: 1990-095A
Perigee: 36,292.7 km
Apogee: 36,362.9 km
Inclination: 15.4 °
Period: 1,463.5 minutes
Semi major axis: 42698 km
RCS: Unknown
Launch date: November 13, 1990
Source: United States (US)
Launch site: AIR FORCE EASTERN TEST RANGE (AFETR)
aabbcc
Your satellite tracking list
Your tracking list is empty




NASA's NSSDC Master Catalog

Two Line Element Set (TLE):
1 20929U 90095A   19203.03878370 -.00000028 +00000-0 +00000-0 0  9997
2 20929 015.3605 003.6937 0008214 017.7927 342.2743 00.98396500000645
Source of the keplerian elements: McCants